Regional Weather Roundup
Issued by NWS

Home | Current Version | Previous Version | Text Only | Print | Product List | Glossary Off
Versions: 1 2 3 4 5 6 7 8 9 10 11 12 13 14 15 16 17 18 19 20 21 22 23 24 25 26 27 28 29 30 31 32 33 34 35 36 37 38 39 40 41 42 43 44 45 46 47 48 49 50

000
ASUS45 KCYS 210810
RWRWY

WYOMING REGIONAL WEATHER ROUNDUP
NATIONAL WEATHER SERVICE CHEYENNE WY
200 AM MDT TUE OCT 21 2014

NOTE:  "FAIR" INDICATES FEW OR NO CLOUDS BELOW 12,000 FEET
WITH NO SIGNIFICANT WEATHER AND/OR OBSTRUCTIONS TO VISIBILITY.

WYZ001-210900-
YELLOWSTONE NATIONAL PARK

CITY           SKY/WX    TMP DP  RH WIND       PRES   REMARKS
LK YELLOWSTONE   N/A     30  27  88 CALM      30.06F
W YELLOWSTONE  NOT AVBL

$$
WYZ002>013-054>058-071-098>099-210900-
NORTHERN WYOMING

CITY           SKY/WX    TMP DP  RH WIND       PRES   REMARKS
JACKSON        PTCLDY    34  28  80 N5        30.00F WCI  30
CODY           CLEAR     54  34  47 SW10      29.88F
GREYBULL       CLEAR     46  27  47 S5        29.85S
WORLAND        CLEAR     44  30  57 CALM      29.86S
SHERIDAN       CLEAR     45  30  55 VRB5      29.82S
BUFFALO        CLEAR     52  25  35 W5        29.89S
GILLETTE       NOT AVBL
HULETT         FAIR      63  34  34 W3        29.88
NEWCASTLE      FAIR      59  32  36 E10       29.93

$$
WYZ014>020-022>026-101>103-210900-
CENTRAL WYOMING

CITY           SKY/WX    TMP DP  RH WIND       PRES   REMARKS
BIG PINEY      PTCLDY    34  27  75 NW3       30.07S
PINEDALE       MOSUNNY   34  32  93 CALM      30.07F
DUBOIS         FAIR      37  28  70 NW12      30.03F WCI  30
LANDER         CLEAR     57  31  37 SW6       29.94S
RIVERTON       CLEAR     45  29  53 NW5       29.96S
CASPER         CLEAR     54  35  48 S13       29.97S
DOUGLAS        CLEAR     45  33  63 SE3       29.98F

$$
WYZ021-027>030-104>119-210900-
SOUTHERN WYOMING

CITY           SKY/WX    TMP DP  RH WIND       PRES   REMARKS
EVANSTON       PTCLDY    49  34  56 S7        30.05F
KEMMERER       MOSUNNY   43  32  65 N3        30.07S
FORT BRIDGER   CLOUDY    51  35  52 S12       30.08S
ROCK SPRINGS   CLEAR     51  34  52 S8        30.06F
DIXON          FAIR      39  33  79 CALM      30.13S
RAWLINS        CLEAR     49  34  56 SW7       30.09S
SARATOGA       FAIR      45  34  65 S13       30.12F
LARAMIE        CLEAR     37  31  78 S8        30.13S WCI  31
CHEYENNE       CLEAR     41  33  73 NW5       30.07S
TORRINGTON     CLEAR     54  37  52 SE10      29.96F
PINE BLUFFS    FAIR      45  36  70 W5        30.04S

$$


USA.gov is the U.S. government's official web portal to all federal, state and local government web resources and services.